Flag for Austria Weather past 2 weeks in Bruck an der Leitha, Lower Austria, Austria

Now
29 °F

Passing clouds.


Feels Like: N/A
Forecast: 40 / 52 °F
Wind: N/A

Location: Wien / Schwechat-Flughafen

Current Time: Mar 1, 2015 at 8:26:25 AM

Latest Report: Mar 1, 2015 at 7:00 AM


Visibility: 3 mi

Pressure: 29.99 "Hg

Humidity: 98%

Dew point: 29 °F

Location of Bruck an der LeithaLocation

Historic Weather in Bruck an der Leitha — Graph

°F

Bruck an der Leitha temperature yesterday

Maximum temperature yesterday: 47 °F (at 1:00 PM)
Minimum temperature yesterday: 34 °F (at 11:00 PM)
Average temperature yesterday: 42 °F

Past Weeks' High & Low Weather Summary

 TemperatureHumidityPressure
High53 °F (Feb 21, 3:00 PM)100% (Feb 20, 8:00 AM)30.79 "Hg (Feb 20, 8:00 AM)
Low23 °F (Feb 20, 7:00 AM)34% (Feb 21, 12:00 PM)29.59 "Hg (Feb 23, 4:00 PM)
Average38 °F79%30.09 "Hg
* Reported Feb 14 7:00 AM — Mar 1 7:00 AM, Bruck an der Leitha, Weather by CustomWeather, © 2015

Note: Actual official high and low records may vary slightly from our data, if they occured in-between our weather recording intervals... More about our weather records

Advertising

Bruck an der Leitha weather history for previous 24 hours

 ConditionsComfort  
Time TempWeatherWind HumidityBarometerVisibility
7:00 AM
Sun, Mar 1
29 °FPassing clouds.N/A98%29.99 "Hg3 mi
6:00 AM33 °FPassing clouds.N/A85%30.00 "Hg6 mi
5:00 AM34 °FPassing clouds.N/A84%30.02 "Hg8 mi
4:00 AM30 °FPassing clouds.N/A92%30.03 "Hg7 mi
3:00 AM29 °FPassing clouds.N/A92%30.06 "Hg6 mi
2:00 AM30 °FPassing clouds.N/A91%30.09 "Hg5 mi
1:00 AM29 °FPassing clouds.N/A90%30.11 "Hg6 mi
12:00 AM35 °FPassing clouds.3 mph83%30.11 "Hg6 mi
11:00 PM
Sat, Feb 28
34 °FPassing clouds.N/A83%30.12 "Hg7 mi
10:00 PM36 °FPassing clouds.N/A77%30.13 "Hg10 mi
9:00 PM39 °FPassing clouds.N/A72%30.14 "Hg12 mi
8:00 PM41 °FPassing clouds.3 mph70%30.14 "Hg14 mi
7:00 PM41 °FPassing clouds.5 mph70%30.13 "Hg13 mi
6:00 PM43 °FPassing clouds.6 mph69%30.12 "Hg12 mi
5:00 PM45 °FPartly sunny.6 mph64%30.11 "Hg9 mi
4:00 PM47 °FOvercast.6 mph61%30.11 "Hg11 mi
3:00 PM47 °FOvercast.6 mph61%30.11 "Hg12 mi
2:00 PM47 °FOvercast.6 mph63%30.12 "Hg6 mi
1:00 PM47 °FOvercast.7 mph60%30.12 "Hg9 mi
12:00 PM46 °FPartly sunny.8 mph64%30.13 "Hg9 mi
11:00 AM45 °FOvercast.8 mph68%30.13 "Hg10 mi
10:00 AM44 °FOvercast.7 mph70%30.13 "Hg10 mi
9:00 AM42 °FPartly sunny.9 mph73%30.12 "Hg9 mi
8:00 AM40 °FPartly sunny.6 mph76%30.11 "Hg11 mi
Weather by CustomWeather, © 2015

See weather overviewHow to use our weather pages